Flag for Ireland Weather past 2 weeks in Limerick, Ireland

Now
57 °F

Partly sunny.


Feels Like: 54 °F
Forecast: 52 / 62 °F
Wind: 14 mph from Southwest

Location: Shannon Airport

Current Time: Oct 22, 2014 at 1:52:53 PM

Latest Report: Oct 22, 2014 at 1:30 PM


Visibility: N/A

Pressure: 30.21 "Hg

Humidity: 59%

Dew point: 43 °F

Location of LimerickLocation

Historic Weather in Limerick — Graph

°F

Limerick temperature yesterday

Maximum temperature yesterday: 57 °F (at 12:00 AM)
Minimum temperature yesterday: 46 °F (at 8:00 AM)
Average temperature yesterday: 52 °F

Past Weeks' High & Low Weather Summary

 TemperatureHumidityPressure
High64 °F (Oct 16, 12:30 PM)100% (Oct 10, 10:00 PM)30.33 "Hg (Oct 10, 10:00 PM)
Low36 °F (Oct 14, 5:30 AM)42% (Oct 9, 2:30 PM)29.00 "Hg (Oct 8, 3:30 PM)
Average52 °F82%29.60 "Hg
* Reported Oct 7 12:00 Noon — Oct 22 12:30 PM, Limerick, Weather by CustomWeather, © 2014

Note: Actual official high and low records may vary slightly from our data, if they occured in-between our weather recording intervals... More about our weather records

Advertising

Limerick weather history for previous 24 hours

 ConditionsComfort  
Time TempWeatherWind HumidityBarometerVisibility
12:30 PM
Oct 22
57 °FPartly sunny.17 mph59%30.24 "HgN/A
12:00 PM55 °FBroken clouds.17 mph63%30.24 "HgN/A
11:30 AM55 °FBroken clouds.13 mph63%30.24 "HgN/A
11:00 AM54 °FPartly sunny.14 mph67%30.24 "HgN/A
10:30 AM54 °FPartly sunny.12 mph63%30.27 "HgN/A
10:00 AM52 °FBroken clouds.14 mph67%30.24 "HgN/A
9:30 AM52 °FBroken clouds.12 mph72%30.27 "HgN/A
9:00 AM54 °FPartly cloudy.8 mph67%30.27 "HgN/A
8:30 AM54 °FPartly cloudy.7 mph67%30.27 "HgN/A
8:00 AM54 °FPartly cloudy.12 mph58%30.27 "HgN/A
7:30 AM54 °FPassing clouds.13 mph58%30.30 "HgN/A
7:00 AM54 °FPartly cloudy.14 mph58%30.30 "HgN/A
6:30 AM54 °FPassing clouds.13 mph58%30.30 "HgN/A
6:00 AM54 °FPassing clouds.13 mph54%30.30 "HgN/A
5:30 AM54 °FPassing clouds.14 mph54%30.30 "HgN/A
5:00 AM54 °FPassing clouds.13 mph54%30.30 "HgN/A
4:30 AM54 °FPassing clouds.13 mph54%30.30 "HgN/A
4:00 AM54 °FOvercast.10 mph58%30.30 "HgN/A
3:30 AM52 °FPassing clouds.8 mph58%30.33 "HgN/A
3:00 AM52 °FPassing clouds.6 mph58%30.33 "HgN/A
2:30 AM52 °FPassing clouds.9 mph58%30.33 "HgN/A
2:00 AM52 °FPassing clouds.10 mph58%30.33 "HgN/A
1:30 AM50 °FPassing clouds.7 mph62%30.30 "HgN/A
1:00 AM50 °FPassing clouds.7 mph62%30.30 "HgN/A
12:30 AM50 °FPassing clouds.9 mph62%30.30 "HgN/A
12:00 AM50 °FPassing clouds.10 mph58%30.30 "HgN/A
11:30 PM
Oct 21
50 °FPassing clouds.10 mph58%30.30 "HgN/A
11:00 PM50 °FPartly cloudy.8 mph58%30.30 "HgN/A
10:30 PM50 °FPartly cloudy.12 mph54%30.30 "HgN/A
10:00 PM52 °FPartly cloudy.13 mph54%30.30 "HgN/A
9:30 PM50 °FPartly cloudy.9 mph58%30.27 "HgN/A
9:00 PM50 °FPassing clouds.9 mph54%30.27 "HgN/A
8:30 PM50 °FPassing clouds.12 mph54%30.27 "HgN/A
8:00 PM50 °FPassing clouds.14 mph50%30.24 "HgN/A
7:30 PM52 °FPassing clouds.13 mph54%30.24 "HgN/A
7:00 PM52 °FScattered clouds.13 mph54%30.24 "HgN/A
6:30 PM52 °FScattered clouds.15 mph50%30.21 "HgN/A
6:00 PM52 °FPassing clouds.16 mph58%30.21 "HgN/A
5:30 PM52 °FPassing clouds.18 mph54%30.18 "HgN/A
5:00 PM54 °FPassing clouds.21 mph47%30.18 "HgN/A
4:30 PM54 °FScattered clouds.21 mph54%30.15 "HgN/A
4:00 PM54 °FPartly sunny.23 mph51%30.15 "HgN/A
3:30 PM54 °FScattered clouds.24 mph47%30.15 "HgN/A
3:00 PM54 °FPassing clouds.24 mph51%30.12 "HgN/A
2:30 PM52 °FPassing clouds.23 mph54%30.12 "HgN/A
2:00 PM54 °FScattered clouds.26 mph47%30.09 "HgN/A
1:30 PM54 °FScattered clouds.25 mph44%30.07 "HgN/A
1:00 PM54 °FPassing clouds.25 mph47%30.07 "HgN/A
Weather by CustomWeather, © 2014

See weather overviewHow to use our weather pages